ASA60 PAKT-KSEA

Flight info

Callsign ASA60
Flight time N/A
Altitude 39000
Route ANN3 JIZPU YJQ VIXOR MARNR8
Aircraft B737/M-SDE2E3FGHIRWXY/LB1

Departure

Time 2026-04-29 22:20
Airport Ketchikan International Airport (PAKT)

Arrival

Time N/A
Airport Seattle–Tacoma International Airport (KSEA)
Time Latitude Longitude Altitude Speed Heading
2026-04-29 22:05 55.35657 -131.71040 59 ft 0 kts 47°
2026-04-29 22:13 55.35657 -131.71041 59 ft 1 kts 47°
2026-04-29 22:13 55.35640 -131.71072 60 ft 4 kts 44°
2026-04-29 22:14 55.35620 -131.71103 50 ft 4 kts 32°
2026-04-29 22:14 55.35597 -131.71119 53 ft 4 kts 348°
2026-04-29 22:14 55.35588 -131.71113 58 ft 0 kts 316°
2026-04-29 22:17 55.35632 -131.71191 54 ft 17 kts 315°
2026-04-29 22:17 55.35716 -131.71333 56 ft 16 kts 316°
2026-04-29 22:17 55.35797 -131.71469 60 ft 16 kts 316°
2026-04-29 22:18 55.35873 -131.71601 56 ft 15 kts 313°
2026-04-29 22:18 55.35944 -131.71734 63 ft 15 kts 313°
2026-04-29 22:18 55.36012 -131.71861 86 ft 14 kts 314°
2026-04-29 22:18 55.36078 -131.71980 92 ft 13 kts 314°
2026-04-29 22:19 55.36152 -131.72116 92 ft 18 kts 314°
2026-04-29 22:19 55.36185 -131.72267 89 ft 12 kts 246°
2026-04-29 22:19 55.36120 -131.72331 90 ft 12 kts 163°
2026-04-29 22:19 55.36039 -131.72200 91 ft 34 kts 135°
2026-04-29 22:20 55.35694 -131.71613 96 ft 103 kts 136°
2026-04-29 22:20 55.35043 -131.70506 112 ft 153 kts 136°
2026-04-29 22:20 55.34242 -131.69130 536 ft 169 kts 132°
2026-04-29 22:20 55.33386 -131.67616 1150 ft 180 kts 135°
2026-04-29 22:21 55.32457 -131.66023 1765 ft 189 kts 137°
2026-04-29 22:21 55.31795 -131.64903 1996 ft 209 kts 138°
2026-04-29 22:21 55.30306 -131.62436 2707 ft 229 kts 140°
2026-04-29 22:21 55.28966 -131.60974 3688 ft 227 kts 163°
2026-04-29 22:22 55.27414 -131.60611 4588 ft 228 kts 184°
2026-04-29 22:22 55.26344 -131.60837 5215 ft 230 kts 191°
2026-04-29 22:22 55.24139 -131.61553 6021 ft 252 kts 190°
2026-04-29 22:22 55.22982 -131.61916 6583 ft 257 kts 190°
2026-04-29 22:23 55.21226 -131.62498 7496 ft 260 kts 191°
2026-04-29 22:23 55.19412 -131.62575 8419 ft 264 kts 171°
2026-04-29 22:23 55.17608 -131.61933 9548 ft 264 kts 171°
2026-04-29 22:23 55.15770 -131.61246 10429 ft 275 kts 168°
2026-04-29 22:24 55.13861 -131.60359 10873 ft 296 kts 170°
2026-04-29 22:24 55.11793 -131.59769 11738 ft 302 kts 171°
2026-04-29 22:24 55.09725 -131.59078 12835 ft 302 kts 171°
2026-04-29 22:24 55.07679 -131.58364 13917 ft 302 kts 169°
2026-04-29 22:25 55.05590 -131.57635 14837 ft 306 kts 171°
2026-04-29 22:25 55.03506 -131.56913 15675 ft 311 kts 171°
2026-04-29 22:25 55.01359 -131.56157 16570 ft 316 kts 169°
2026-04-29 22:25 54.99194 -131.55269 17515 ft 320 kts 168°
2026-04-29 22:26 54.97015 -131.54349 18438 ft 325 kts 168°
2026-04-29 22:26 54.94827 -131.53430 19203 ft 330 kts 168°
2026-04-29 22:26 54.92561 -131.52493 19927 ft 336 kts 169°
2026-04-29 22:26 54.90253 -131.51551 20660 ft 342 kts 169°
2026-04-29 22:27 54.87916 -131.50607 21384 ft 348 kts 169°
2026-04-29 22:27 54.85547 -131.49658 21992 ft 356 kts 170°
2026-04-29 22:27 54.83104 -131.48683 22848 ft 358 kts 170°
2026-04-29 22:27 54.80683 -131.47718 23613 ft 363 kts 170°
2026-04-29 22:28 54.78171 -131.46722 24210 ft 370 kts 170°
2026-04-29 22:28 54.75672 -131.45732 24810 ft 374 kts 171°
2026-04-29 22:28 54.73125 -131.44719 25453 ft 376 kts 171°
2026-04-29 22:28 54.70549 -131.43697 26070 ft 380 kts 171°
2026-04-29 22:29 54.67982 -131.42684 26656 ft 384 kts 171°
2026-04-29 22:29 54.65349 -131.41650 27235 ft 388 kts 171°
2026-04-29 22:29 54.62730 -131.40620 27810 ft 391 kts 172°
2026-04-29 22:29 54.60057 -131.39569 28373 ft 395 kts 172°
2026-04-29 22:30 54.57352 -131.38509 28864 ft 399 kts 172°
2026-04-29 22:30 54.54652 -131.37447 29313 ft 405 kts 172°
2026-04-29 22:30 54.51874 -131.36358 29850 ft 408 kts 172°
2026-04-29 22:30 54.49089 -131.35267 30392 ft 411 kts 172°
2026-04-29 22:31 54.46321 -131.34186 30820 ft 414 kts 173°
2026-04-29 22:31 54.43487 -131.33075 31216 ft 418 kts 171°
2026-04-29 22:31 54.40733 -131.31248 31561 ft 434 kts 155°
2026-04-29 22:31 54.38284 -131.28078 31964 ft 444 kts 144°
2026-04-29 22:32 54.35955 -131.24520 32354 ft 448 kts 143°
2026-04-29 22:32 54.33679 -131.20935 32668 ft 452 kts 143°
2026-04-29 22:32 54.31341 -131.17226 32990 ft 455 kts 143°
2026-04-29 22:32 54.29008 -131.13547 33396 ft 456 kts 143°
2026-04-29 22:33 54.26687 -131.09919 33880 ft 454 kts 143°
2026-04-29 22:33 54.24336 -131.06277 34362 ft 452 kts 143°
2026-04-29 22:33 54.22017 -131.02709 34697 ft 453 kts 144°
2026-04-29 22:33 54.19658 -130.99095 34972 ft 454 kts 144°
2026-04-29 22:34 54.17285 -130.95481 35276 ft 455 kts 144°
2026-04-29 22:34 54.14936 -130.91910 35617 ft 455 kts 144°
2026-04-29 22:34 54.12570 -130.88321 35908 ft 456 kts 143°
2026-04-29 22:34 54.10218 -130.84740 36174 ft 457 kts 144°
2026-04-29 22:35 54.07829 -130.81121 36464 ft 458 kts 144°
2026-04-29 22:35 54.05438 -130.77507 36788 ft 458 kts 144°
2026-04-29 22:35 54.03078 -130.73946 37101 ft 458 kts 144°
2026-04-29 22:35 54.00688 -130.70344 37373 ft 458 kts 144°
2026-04-29 22:36 53.98283 -130.66724 37652 ft 459 kts 144°
2026-04-29 22:36 53.95913 -130.63160 37938 ft 459 kts 144°
2026-04-29 22:36 53.93503 -130.59547 38225 ft 459 kts 144°
2026-04-29 22:36 53.91120 -130.55977 38414 ft 461 kts 144°
2026-04-29 22:37 53.88702 -130.52354 38592 ft 464 kts 144°
2026-04-29 22:37 53.86270 -130.48720 38872 ft 464 kts 144°
2026-04-29 22:37 53.83872 -130.45144 39154 ft 463 kts 144°
2026-04-29 22:37 53.81450 -130.41538 39340 ft 464 kts 144°
2026-04-29 22:38 53.79005 -130.37908 39322 ft 468 kts 144°
2026-04-29 22:38 53.74119 -130.30617 39341 ft 465 kts 144°
2026-04-29 22:39 53.69298 -130.23491 39322 ft 462 kts 144°
2026-04-29 22:39 53.64437 -130.16351 39328 ft 463 kts 144°
2026-04-29 22:40 53.59580 -130.09244 39339 ft 462 kts 144°
2026-04-29 22:40 53.54729 -130.02145 39336 ft 463 kts 144°
2026-04-29 22:41 53.49871 -129.95046 39329 ft 464 kts 144°
2026-04-29 22:41 53.44995 -129.87952 39340 ft 465 kts 144°
2026-04-29 22:42 53.40102 -129.80846 39345 ft 466 kts 144°
2026-04-29 22:42 53.35162 -129.73707 39344 ft 468 kts 144°
2026-04-29 22:43 53.30246 -129.66623 39326 ft 468 kts 144°
2026-04-29 22:43 53.25322 -129.59547 39339 ft 469 kts 144°
2026-04-29 22:44 53.20357 -129.52437 39340 ft 469 kts 144°
2026-04-29 22:44 53.15431 -129.45371 39336 ft 468 kts 144°
2026-04-29 22:45 53.10458 -129.38320 39324 ft 468 kts 144°
2026-04-29 22:45 53.05521 -129.31322 39334 ft 467 kts 144°
2026-04-29 22:46 53.00586 -129.24345 39341 ft 467 kts 144°
2026-04-29 22:46 52.95644 -129.17377 39343 ft 467 kts 144°
2026-04-29 22:47 52.90702 -129.10430 39324 ft 467 kts 144°
2026-04-29 22:47 52.85731 -129.03465 39327 ft 468 kts 144°
2026-04-29 22:48 52.80755 -128.96511 39339 ft 469 kts 144°
2026-04-29 22:48 52.75780 -128.89586 39347 ft 470 kts 144°
2026-04-29 22:49 52.70758 -128.82614 39333 ft 470 kts 144°
2026-04-29 22:49 52.65762 -128.75700 39327 ft 470 kts 144°
2026-04-29 22:50 52.60722 -128.68752 39335 ft 472 kts 144°
2026-04-29 22:50 52.55702 -128.61850 39335 ft 473 kts 144°
2026-04-29 22:51 52.50623 -128.54884 39337 ft 474 kts 144°
2026-04-29 22:51 52.43063 -128.44556 39333 ft 473 kts 144°
2026-04-29 22:52 52.38015 -128.37689 39341 ft 472 kts 144°
2026-04-29 22:52 52.32947 -128.30811 39349 ft 471 kts 144°
2026-04-29 22:53 52.27916 -128.24006 39336 ft 470 kts 144°
2026-04-29 22:53 52.22891 -128.17230 39346 ft 469 kts 144°
2026-04-29 22:54 52.17872 -128.10476 39346 ft 469 kts 143°
2026-04-29 22:54 52.12972 -128.03385 39340 ft 469 kts 141°
2026-04-29 22:55 52.08172 -127.96189 39332 ft 469 kts 140°
2026-04-29 22:55 52.03379 -127.89059 39340 ft 468 kts 141°
2026-04-29 22:56 51.98551 -127.81966 39345 ft 469 kts 141°
2026-04-29 22:56 51.93713 -127.74902 39346 ft 469 kts 141°
2026-04-29 22:57 51.88830 -127.67792 39353 ft 471 kts 141°
2026-04-29 22:57 51.83960 -127.60715 39333 ft 473 kts 141°
2026-04-29 22:58 51.79058 -127.53629 39323 ft 473 kts 141°
2026-04-29 22:58 51.74138 -127.46537 39335 ft 472 kts 141°
2026-04-29 22:59 51.69246 -127.39511 39320 ft 473 kts 141°
2026-04-29 22:59 51.64346 -127.32471 39334 ft 474 kts 141°
2026-04-29 23:00 51.59389 -127.25412 39307 ft 474 kts 141°
2026-04-29 23:00 51.54481 -127.18376 39313 ft 476 kts 141°
2026-04-29 23:01 51.49610 -127.11198 39298 ft 474 kts 140°
2026-04-29 23:01 51.44663 -127.04222 39323 ft 474 kts 142°
2026-04-29 23:02 51.39637 -126.97288 39316 ft 475 kts 142°
2026-04-29 23:02 51.34681 -126.90379 39323 ft 471 kts 142°
2026-04-29 23:03 51.29754 -126.83470 39309 ft 473 kts 142°
2026-04-29 23:03 51.24806 -126.76533 39307 ft 476 kts 141°
2026-04-29 23:04 51.19789 -126.69546 39307 ft 478 kts 142°
2026-04-29 23:04 51.14789 -126.62616 39322 ft 479 kts 141°
2026-04-29 23:05 51.09759 -126.55602 39314 ft 480 kts 142°
2026-04-29 23:05 51.04699 -126.48598 39307 ft 483 kts 142°
2026-04-29 23:06 50.99646 -126.41617 39323 ft 483 kts 143°
2026-04-29 23:06 50.94525 -126.34659 39307 ft 483 kts 142°